User: anonymous   Login
Location: Caltech
(34.1382°N, 118.1253°W)
Time: 06:15:24
(UTC-07:00)
Language:

Lacrosse 5 rocket - Orbit

View from above orbital plane
View from above orbital plane
View from above satellite
View from above satellite

Ground track
Ground track

The orbit data is extracted from the following two-line orbital elements,

1 28647U 05016B   15241.87470003 0.00001100  00000-0  66075-4 0    04
2 28647  56.9966 161.6654 0133056 221.0285 138.9715 15.03249476    02
Epoch (UTC): 29 August 2015 20:59:34
Eccentricity: 0.0133056
inclination: 56.9966°
perigee height: 464 km
apogee height: 649 km
right ascension of ascending node: 161.6654°
argument of perigee: 221.0285°
revolutions per day: 15.03249476
mean anomaly at epoch: 138.9715°
orbit number at epoch: 0

The dashed part of the orbit path shows where the satellite is in the earth's shadow,  

DLR